Skip Page Navigation
NASA JPL Caltech
NASA Logo - Jet Propulsion Laboratory + View the NASA Portal
+ Center for Near-Earth Object Studies
JPL Home Earth Solar System Stars & Galaxies Technology
JPL Solar System Dynamics
BODIES ORBITS EPHEMERIDES TOOLS PHYSICAL DATA DISCOVERY FAQ SITE MAP
JPL Small-Body Database Browser
Search: [ help ]  
136158 (2003 UU14)
Classification: Main-belt Asteroid          SPK-ID: 2136158
Ephemeris | Orbit Diagram | Orbital Elements | Mission Design | Physical Parameters | Discovery Circumstances | Close-Approach Data ]

[ show orbit diagram ]
Orbital Elements at Epoch 2459000.5 (2020-May-31.0) TDB
Reference: JPL 14 (heliocentric ecliptic J2000)
 Element Value Uncertainty (1-sigma)   Units 
e .0375495077667338 5.9402e-08  
a 2.300307459794825 1.3093e-08 au
q 2.213932046967384 1.3842e-07 au
i 5.982309765701586 5.1527e-06 deg
node 226.4736925389031 4.921e-05 deg
peri 293.9718295519046 7.9e-05 deg
M 146.2033173472979 6.0456e-05 deg
tp 2458482.974224627806
(2018-Dec-30.47422463)
0.00021529 TDB
period 1274.316359672075
3.49
1.088e-05
2.979e-08
d
yr
n .2825044167938331 2.412e-09 deg/d
Q 2.386682872622266 1.3585e-08 au
  Orbit Determination Parameters
   # obs. used (total)      404  
   data-arc span      8247 days (22.58 yr)  
   first obs. used      1996-10-04  
   last obs. used      2019-05-04  
   planetary ephem.      DE431  
   SB-pert. ephem.      SB431-N16  
   condition code      0  
   norm. resid. RMS      .61876  
   source      ORB  
   producer      Otto Matic  
   solution date      2019-May-30 07:12:44  

Additional Information
 Earth MOID = 1.22738 au 
 Jupiter MOID = 2.59663 au 
 T_jup = 3.584 
[ show covariance matrix ]

Ephemeris | Orbit Diagram | Orbital Elements | Mission Design | Physical Parameters | Discovery Circumstances | Close-Approach Data ]

Physical Parameter Table
Parameter Symbol Value Units Sigma Reference Notes
absolute magnitude H 16.4   n/a MPO436669  

136158 (2003 UU14)          Discovered 2003-Oct-16 by Spacewatch at Kitt Peak
Reference: 20060907/Numbers.arcLast Updated: 2006-09-10

[ show close-approach data ]
Ephemeris | Orbit Diagram | Orbital Elements | Mission Design | Physical Parameters | Discovery Circumstances | Close-Approach Data ]
ABOUT SSD CREDITS/AWARDS PRIVACY/COPYRIGHT GLOSSARY LINKS
FirstGov 2020-Aug-05 08:37 UT
(server date/time)  
NASA Home Page
Site Manager:   Ryan S. Park
Webmaster  Alan B. Chamberlin